Wind_Speed
59 53 50 44 39 40 43 39 35 37 40 44 42 34 30 31 29 27 26 27 30 28 27 29 30 30 30 32 32 27 23 22 24 26 24 24 26 25 20 14 14 19 23 22 19 18 19 22 23 21 19 18 15 15 15 14 13 13 12 12 11 11 11 11 12 13 14 14 14 14 14 13 12 13 13 13 12 12 12 12 11 12 11 10 8 8 7
64 57 51 46 42 43 46 41 35 36 37 41 45 37 28 28 27 25 24 24 25 25 25 26 28 31 34 34 31 26 24 24 26 28 28 28 28 25 21 16 11 12 16 19 18 18 19 22 22 21 20 19 17 15 14 13 11 10 10 9 8 8 8 9 10 12 13 13 14 15 15 15 15 15 16 16 15 14 13 13 12 12 11 10 9 8 7
67 61 52 49 49 48 48 43 38 41 40 38 41 39 31 27 26 25 24 21 21 25 28 27 28 31 33 35 31 26 26 28 27 28 30 29 27 24 21 18 16 15 16 16 17 18 20 21 20 20 21 20 19 18 17 15 14 12 11 10 8 8 8 9 10 10 10 12 13 14 15 16 17 17 18 18 17 16 15 14 13 13 12 11 9 9 8
67 64 55 53 55 53 50 45 40 43 42 37 38 41 36 28 26 27 25 24 26 30 31 29 28 29 31 32 31 27 26 27 26 27 29 29 26 25 23 21 19 20 19 17 17 18 19 20 19 20 21 21 21 20 18 18 17 16 14 12 11 10 10 10 10 10 11 12 13 14 15 16 17 18 19 20 20 18 15 15 15 14 12 11 11 10 8
68 65 58 54 56 55 51 45 38 40 41 36 35 39 39 32 29 30 29 30 31 31 31 30 29 28 29 31 31 28 26 26 28 28 30 30 29 29 28 25 23 23 22 22 22 21 21 22 21 20 22 22 21 19 18 18 18 17 16 14 13 11 11 10 10 11 12 12 13 14 15 16 17 18 19 19 20 19 17 17 17 15 13 12 11 11 9
71 66 59 56 57 57 52 43 38 41 42 38 35 37 40 38 31 30 34 37 37 34 32 33 33 32 32 32 32 30 28 29 29 29 31 33 33 31 29 27 24 23 21 22 24 24 24 24 24 23 24 23 21 19 18 18 17 16 15 14 12 11 11 11 11 12 13 13 13 14 15 16 16 17 17 18 19 20 19 19 17 16 15 14 12 12 11
75 67 59 57 58 57 51 43 43 47 45 40 39 40 43 43 36 32 36 41 41 37 34 35 37 37 36 37 36 34 32 31 30 28 29 30 29 28 27 26 24 21 17 16 18 20 22 24 25 25 25 23 21 20 18 16 15 14 14 13 12 12 12 13 13 14 14 14 15 15 16 17 16 15 16 17 19 21 20 19 18 17 17 16 14 13 12
78 71 62 57 57 57 51 46 49 51 45 41 43 46 46 47 43 36 36 40 40 38 36 35 38 40 39 39 39 38 35 33 30 28 27 27 27 25 25 25 24 22 19 17 16 16 17 19 21 22 23 23 22 20 18 17 16 15 15 15 14 14 15 16 16 16 16 17 17 17 17 17 17 16 16 17 19 21 21 19 19 18 17 16 15 15 15
77 76 67 57 55 57 55 52 54 53 46 43 46 49 48 48 47 41 38 40 41 41 40 40 40 42 43 41 39 38 37 35 32 29 27 25 24 23 23 23 23 23 21 19 18 17 17 17 18 19 21 23 23 22 20 19 18 18 18 17 17 18 18 18 18 19 19 18 18 17 16 17 17 17 17 17 19 21 21 19 18 17 17 17 16 17 17
73 77 71 58 53 59 62 60 57 55 51 47 45 48 50 50 50 49 45 43 43 43 44 45 46 46 44 41 40 39 38 36 33 29 27 25 24 23 23 23 23 22 21 20 19 18 18 18 18 18 19 20 21 21 21 20 20 20 20 21 22 22 22 21 21 22 22 20 18 17 17 16 16 17 18 19 20 21 21 20 19 18 18 17 17 17 17
72 76 73 61 55 60 67 63 56 56 58 51 44 48 54 55 55 55 49 44 45 47 48 49 49 47 44 42 41 40 38 36 33 31 30 28 26 26 26 25 24 22 21 21 20 19 20 20 20 20 20 20 21 22 22 23 22 22 23 24 25 26 26 25 25 25 24 22 19 18 19 17 16 17 19 20 21 22 21 21 20 19 19 18 17 17 16
72 75 73 66 59 60 68 66 58 59 62 54 46 50 58 61 61 60 54 48 48 51 53 54 53 51 48 45 43 42 39 35 33 33 34 32 30 28 28 27 25 23 22 21 20 20 21 22 22 22 21 20 21 22 23 24 25 25 25 27 28 28 28 28 28 27 26 24 20 19 20 20 18 18 19 20 22 22 21 21 21 20 19 17 16 16 16
71 73 72 68 62 63 70 68 59 61 66 60 50 51 58 62 64 64 61 57 56 57 58 58 56 53 50 48 46 44 43 39 36 34 34 34 32 30 28 27 26 25 24 23 21 21 21 21 22 22 22 20 20 21 22 24 25 26 27 28 29 29 30 30 30 29 27 25 22 20 22 22 21 20 19 20 20 20 21 22 21 20 19 17 17 17 17
69 72 72 68 64 64 70 69 62 62 67 64 55 51 56 62 64 64 65 64 62 62 63 60 56 52 50 49 47 45 44 41 37 35 35 35 35 32 30 29 28 27 26 25 23 23 22 22 22 23 22 21 20 20 21 22 23 24 25 26 27 28 29 30 30 30 29 26 23 22 23 23 22 22 21 21 20 20 21 21 21 20 19 18 18 18 18
64 70 72 68 64 63 67 69 65 62 64 65 61 54 54 62 65 65 66 68 66 65 64 62 58 54 51 50 47 44 42 39 37 36 36 36 36 36 34 32 31 29 28 26 26 25 23 23 23 23 23 22 22 22 21 21 21 22 22 23 24 24 25 26 28 29 29 26 25 24 24 24 24 23 23 23 21 20 20 20 20 19 19 19 19 18 18
57 64 69 68 64 62 62 65 67 65 63 64 65 59 55 59 66 69 68 67 66 65 64 62 60 56 51 48 43 40 38 38 38 39 40 40 40 40 38 36 34 32 30 29 28 27 25 25 25 25 25 24 23 23 22 21 21 21 21 21 21 22 23 24 25 27 27 26 26 25 26 27 26 25 25 24 23 22 21 19 19 19 19 19 18 17 17
53 59 65 68 67 63 59 58 63 69 69 64 62 62 60 58 62 68 70 68 66 64 63 62 60 57 53 49 44 39 37 38 39 39 41 43 44 43 41 39 37 35 34 32 31 28 27 27 27 26 26 26 25 24 23 22 22 22 22 22 22 22 23 24 25 26 26 27 27 28 29 29 29 28 27 26 26 25 24 22 20 19 19 19 19 18 19
50 54 59 66 69 67 61 57 57 63 71 70 63 60 61 60 61 64 67 67 66 64 63 62 60 56 54 51 46 41 40 40 39 38 41 44 45 45 44 41 40 39 38 35 32 30 29 29 29 28 28 27 26 26 25 24 24 24 25 25 25 24 24 25 26 26 27 28 29 29 31 31 31 31 30 29 29 28 27 25 24 22 22 22 21 22 22
48 51 56 61 66 67 64 61 58 57 63 71 72 66 61 59 61 64 64 64 65 64 63 63 62 57 54 51 47 44 42 41 40 40 41 43 45 46 45 43 42 42 41 38 35 34 33 32 32 31 30 29 28 28 28 27 26 27 28 29 28 27 26 26 26 27 28 29 30 30 31 31 32 32 31 31 31 31 30 29 27 27 27 26 26 26 26
48 53 55 55 57 62 64 65 66 62 58 62 70 73 70 66 63 64 65 64 64 65 65 65 64 61 58 56 54 52 49 46 43 41 42 44 46 46 45 44 44 44 43 41 39 38 37 36 35 34 33 32 31 31 31 30 29 30 31 31 30 29 29 28 28 28 29 30 30 30 30 31 31 31 31 32 32 32 32 31 30 31 31 31 31 32 32
48 51 55 54 53 57 61 66 70 67 61 59 61 67 73 75 71 68 68 67 64 64 66 66 66 66 64 62 58 55 52 49 45 43 43 44 45 45 44 44 44 45 45 44 42 41 40 39 38 38 36 34 33 33 33 33 32 31 32 32 32 31 31 31 30 30 30 30 31 31 31 31 31 31 31 32 33 33 33 33 33 33 33 34 35 35 36
52 51 54 59 58 56 57 63 69 68 62 59 58 59 64 70 71 69 71 73 71 68 67 67 68 68 68 66 61 56 52 50 48 45 44 45 46 45 44 43 44 45 45 45 44 43 42 41 41 40 39 38 36 36 35 35 34 33 33 33 33 33 33 33 32 32 31 31 32 31 31 31 31 31 31 32 32 33 33 34 34 34 35 36 36 37 37
54 55 56 59 63 62 58 57 62 64 59 56 56 56 57 60 64 64 65 67 71 73 73 71 71 71 70 68 64 59 55 53 51 48 46 46 47 46 45 44 44 45 45 45 45 44 44 44 43 42 41 41 39 38 38 37 36 36 35 35 35 35 35 34 34 34 34 34 34 33 33 33 32 32 33 33 34 34 34 34 35 36 37 37 38 38 39
49 55 59 60 63 66 65 60 58 59 56 52 53 55 55 55 58 59 57 54 57 63 67 68 69 70 69 67 64 61 59 57 55 53 51 48 48 48 46 44 44 45 45 45 45 45 46 46 45 44 43 42 42 41 41 40 39 39 38 37 37 37 37 37 36 36 36 37 36 36 36 35 35 35 35 35 36 36 36 36 37 38 39 39 40 41 42
46 50 56 62 65 66 66 65 64 63 58 52 50 53 55 56 57 58 56 51 47 48 53 56 59 62 64 63 61 59 59 57 56 56 54 51 48 48 48 46 44 44 45 44 44 45 46 47 47 46 45 44 43 43 43 42 42 42 41 40 40 39 39 39 38 38 38 38 38 37 37 38 38 38 38 38 38 38 38 39 40 40 41 42 42 43 44
46 47 50 58 66 69 67 66 68 68 67 62 57 54 54 57 58 60 60 56 50 46 45 47 49 52 56 59 59 57 56 56 56 56 54 52 50 48 48 48 46 45 45 44 44 44 45 47 48 47 46 45 44 44 44 44 44 44 43 43 42 42 41 40 39 39 39 39 39 39 39 40 40 39 39 40 40 40 40 41 41 42 43 43 44 44 45
43 44 46 51 58 64 66 67 69 70 70 71 69 65 61 58 57 58 60 60 57 53 49 46 45 45 47 51 54 53 52 53 56 56 54 53 51 49 48 48 48 47 46 45 44 44 44 46 47 47 47 47 46 45 44 44 45 45 44 44 44 43 42 42 41 41 41 41 41 41 41 41 41 41 41 41 42 42 42 42 43 44 44 45 46 46 47
39 41 43 44 47 52 57 63 67 71 72 72 72 72 71 69 66 62 60 60 60 59 57 53 49 46 45 45 47 48 48 49 52 54 53 52 51 49 48 47 48 48 47 46 45 44 44 45 46 47 47 48 47 46 45 45 45 45 45 45 44 44 44 43 44 43 43 43 44 43 43 43 43 44 44 44 45 45 45 45 45 46 46 47 47 48 49
31 38 40 41 41 44 49 54 59 65 71 74 73 71 71 72 73 71 68 64 61 61 60 59 56 53 51 49 47 47 46 46 48 49 50 50 50 48 47 45 45 46 47 46 45 45 45 45 46 47 47 48 48 47 47 46 46 46 46 45 45 45 45 45 46 45 45 45 45 45 46 46 46 46 47 47 47 48 48 48 48 48 48 49 50 50 51
17 25 33 39 44 47 49 51 54 59 64 70 73 73 72 72 72 73 73 72 69 66 64 62 61 60 60 59 57 54 52 51 50 49 50 50 50 50 49 47 45 44 44 44 44 44 45 46 47 48 48 49 49 49 48 48 47 47 47 47 47 47 47 47 47 47 47 47 47 47 48 48 48 48 49 49 50 50 50 50 50 50 50 50 51 52 53
11 11 16 26 36 45 50 52 54 57 60 64 69 72 74 75 74 73 73 73 74 72 69 67 66 65 65 65 62 60 59 57 56 54 53 53 53 53 53 52 50 48 46 45 45 45 45 46 47 48 50 50 50 50 50 50 49 48 48 48 48 48 48 48 48 48 48 49 49 49 49 49 50 50 50 51 51 51 52 52 52 52 52 52 53 54 54
12 11 12 15 21 30 39 48 54 57 58 61 65 68 71 74 75 75 74 73 73 73 71 69 69 69 69 68 64 61 60 59 58 57 56 57 57 57 57 58 57 53 50 49 49 49 49 49 49 49 50 51 52 52 52 52 51 50 49 50 50 50 50 50 50 51 51 51 51 51 51 51 51 52 52 52 52 53 53 54 54 54 55 55 56 56 56
10 12 14 16 16 17 23 32 44 52 56 58 61 63 66 69 73 75 75 74 74 72 70 69 69 70 70 69 66 64 62 61 60 59 58 58 59 59 60 61 60 57 53 51 51 51 52 52 52 52 52 52 53 53 54 54 53 52 52 52 52 52 52 52 52 53 53 53 53 53 53 54 54 54 54 54 55 55 56 56 56 56 57 58 58 58 58
7 10 13 16 17 18 18 21 28 38 48 54 58 60 61 65 69 72 72 72 73 72 70 69 69 69 69 68 66 64 62 62 61 61 60 59 59 58 59 60 61 59 56 54 54 54 54 53 54 54 54 54 54 55 55 55 55 55 55 55 55 54 54 54 54 55 55 55 56 56 56 56 56 56 56 56 57 57 58 58 58 59 60 60 60 60 60
5 6 10 14 16 18 20 20 21 24 32 42 50 55 57 59 61 63 64 66 67 68 67 68 68 68 68 67 64 62 61 61 60 60 59 59 58 57 57 59 60 59 56 54 53 53 53 54 54 54 54 54 54 55 56 56 56 57 57 57 57 57 56 56 56 56 56 57 57 58 58 58 58 58 59 59 59 60 60 61 62 62 63 63 63 63 64
7 7 4 7 12 16 19 21 22 21 22 26 34 42 49 52 54 55 56 58 60 62 63 65 66 66 65 64 61 58 58 59 59 58 57 56 56 56 56 58 59 57 55 55 53 51 51 52 53 52 53 53 54 55 55 56 57 57 58 58 59 59 58 58 58 58 58 59 59 59 60 60 61 61 62 62 63 63 64 64 64 65 65 65 66 67 67
8 9 9 5 4 11 15 18 20 22 21 21 22 28 35 42 48 52 54 55 56 58 60 60 60 60 59 58 54 51 50 50 51 52 53 53 53 54 55 57 57 54 52 55 57 55 53 53 52 52 52 54 54 54 54 55 55 57 58 59 59 59 59 59 59 60 61 61 61 62 63 63 64 64 65 65 66 66 66 66 67 67 67 67 68 69 70
8 9 10 9 6 5 9 13 16 19 20 20 20 21 26 32 39 46 51 52 54 56 56 56 57 56 54 49 45 44 45 47 47 47 48 50 51 52 54 56 57 53 51 55 59 58 56 54 54 53 53 54 55 55 55 54 54 55 56 58 58 59 59 60 61 62 63 64 64 65 65 66 66 66 66 67 67 67 68 68 68 68 69 69 69 69 69
6 7 10 12 10 5 3 8 13 15 16 18 19 20 21 23 27 34 41 46 50 54 55 55 56 54 49 44 43 44 46 47 46 45 46 48 49 50 52 54 56 56 57 59 61 60 57 55 54 53 53 54 54 55 55 55 55 54 55 56 57 58 59 60 61 63 65 66 67 67 68 68 68 68 68 69 69 69 69 69 69 69 70 69 69 68 67
7 7 8 10 10 5 1 3 7 10 13 16 17 18 19 20 21 26 33 38 42 48 54 55 52 47 42 39 40 44 47 45 43 42 43 43 44 46 49 52 54 56 58 60 60 59 57 55 54 54 55 56 56 56 56 56 56 56 56 56 56 57 59 60 61 63 65 67 68 69 70 70 70 70 70 70 70 70 70 70 70 70 69 69 67 66 64
10 10 9 9 9 6 3 3 3 6 10 14 14 16 19 20 19 21 26 30 33 40 46 49 46 44 43 43 44 45 46 45 44 42 41 40 41 42 45 47 50 52 54 56 56 55 54 53 54 55 56 57 58 58 58 58 58 58 58 58 58 58 59 60 61 62 64 65 66 67 68 68 69 69 69 69 68 68 67 67 66 66 66 65 64 63 62
9 10 9 7 6 8 7 4 1 1 6 10 11 13 17 19 18 20 24 30 34 39 43 46 47 47 48 50 52 50 48 46 46 46 46 46 46 45 45 45 47 49 50 52 52 51 51 51 52 54 56 57 58 59 59 59 60 60 61 60 61 61 61 61 61 61 62 63 63 64 64 64 64 64 64 64 63 63 62 62 62 61 61 61 61 62 62
5 6 6 2 5 10 10 5 2 4 4 4 6 9 14 19 21 23 26 30 37 41 43 44 46 47 48 50 52 52 50 48 46 46 47 47 47 45 44 45 46 47 48 49 49 49 49 50 51 52 53 54 56 57 58 58 59 61 61 62 62 62 62 62 62 62 62 62 62 62 62 61 61 61 61 61 61 60 60 60 60 60 60 61 61 62 63
6 5 4 2 5 10 13 11 7 6 6 5 3 5 9 14 19 24 27 31 38 44 45 43 43 44 46 47 48 49 49 47 45 45 47 48 47 45 43 43 43 44 45 46 47 48 48 49 50 51 52 53 54 55 56 57 58 59 60 60 61 61 62 62 62 63 63 63 63 63 63 62 62 62 62 62 62 62 62 61 61 61 62 62 62 63 64
10 7 4 1 1 5 10 13 12 12 11 10 9 10 10 10 13 21 28 35 41 45 45 42 39 37 37 40 43 46 48 46 42 40 42 47 51 50 47 42 41 42 44 45 47 48 49 49 49 50 50 51 52 52 53 54 55 56 56 57 57 58 58 59 59 60 61 61 62 63 63 63 62 62 62 62 62 62 62 62 62 62 62 62 62 61 61
10 9 7 3 1 3 5 7 9 11 12 13 13 14 15 14 14 17 24 32 39 41 38 35 33 31 32 35 38 42 45 44 38 33 33 39 46 49 47 42 39 40 41 42 43 45 46 46 46 46 45 46 46 46 46 46 46 47 47 48 48 48 49 49 50 51 52 53 54 55 56 57 57 58 58 59 59 59 60 60 60 60 59 58 58 58 57
9 8 8 6 3 1 4 5 6 7 10 13 14 15 16 18 19 19 19 23 31 36 36 33 31 31 33 35 37 38 40 39 37 34 34 35 39 43 44 43 41 41 41 41 40 40 40 39 38 38 39 39 39 39 40 41 42 43 42 42 42 41 41 40 40 41 42 43 44 45 46 48 49 50 50 51 52 52 53 53 53 53 53 53 53 52 52
11 9 7 7 6 5 2 3 4 6 8 12 16 18 18 19 21 23 22 22 25 31 34 35 34 32 32 34 37 39 40 40 39 39 39 38 38 40 43 46 47 46 44 42 40 39 40 40 39 39 39 39 39 40 41 42 42 42 41 40 38 38 38 39 40 40 41 43 44 44 44 44 44 45 45 46 46 47 48 48 48 49 49 49 49 49 49
13 12 9 7 7 7 6 4 2 3 6 10 14 18 20 21 23 25 26 26 26 28 31 34 37 37 35 34 35 37 38 39 39 38 38 37 36 37 39 43 45 46 45 43 41 40 41 43 44 44 44 44 45 45 43 42 41 40 39 38 38 39 40 41 41 42 43 45 47 47 47 46 45 45 44 45 45 46 47 47 47 47 47 46 46 46 46
14 13 12 10 9 8 7 7 6 4 4 7 11 15 19 21 23 24 27 29 30 30 32 34 37 39 39 38 37 37 36 36 36 34 33 33 33 34 34 36 37 38 40 41 41 42 43 45 45 45 44 44 44 45 44 43 43 42 42 41 42 42 42 43 44 45 46 48 48 47 46 45 44 44 44 44 44 44 45 45 45 45 44 44 44 44 44
15 14 13 12 11 10 9 9 8 7 6 5 7 11 15 19 21 23 25 27 28 30 32 34 37 38 40 41 41 41 40 39 38 37 36 34 33 33 34 34 35 35 36 37 38 40 41 42 42 42 42 41 41 42 42 43 44 43 42 42 42 43 44 46 48 49 49 47 44 43 43 43 42 42 42 42 42 43 43 43 43 43 42 42 43 43 43
15 15 14 13 12 12 12 11 11 10 9 8 8 8 10 14 17 20 23 24 25 27 28 29 31 33 35 37 38 40 41 41 41 41 40 39 39 40 40 40 41 41 41 41 41 42 43 43 44 43 42 41 41 41 42 43 44 44 44 44 45 46 47 48 47 45 43 41 40 41 41 42 41 41 42 42 42 42 42 41 41 40 40 40 42 43 43
Wind_Direction
186 183 184 187 189 204 222 227 218 208 204 202 203 210 220 220 217 216 220 220 215 213 219 223 221 220 226 239 249 248 240 221 203 202 207 209 218 231 237 227 193 183 195 205 210 212 208 201 196 196 205 213 214 214 212 212 209 208 211 209 206 207 206 204 207 210 213 215 217 222 227 231 237 242 246 247 246 248 251 252 254 260 267 274 277 278 280
187 185 186 189 183 189 209 218 209 198 201 207 203 200 210 219 214 209 214 222 219 214 221 228 228 224 225 233 238 232 224 212 198 196 202 209 221 232 238 238 221 197 200 204 208 216 216 209 199 194 200 207 211 214 214 213 212 210 213 215 212 213 215 213 214 217 222 226 229 233 237 239 242 245 248 250 250 250 252 254 257 262 268 273 273 272 275
187 185 187 188 183 185 199 207 197 186 193 208 204 195 199 211 210 204 205 208 207 212 222 226 225 226 228 232 233 222 212 210 202 200 205 211 220 231 237 240 238 233 224 211 208 214 214 211 204 197 200 206 209 213 215 214 214 214 213 218 222 226 230 232 234 235 237 241 244 246 247 248 248 249 249 250 251 250 251 254 257 261 268 272 268 266 269
185 186 188 188 185 185 194 203 197 183 186 202 203 193 189 197 207 203 196 195 197 206 219 218 213 223 231 232 231 222 216 219 217 209 207 207 212 222 232 237 239 237 232 221 219 220 216 217 216 207 206 209 209 212 214 213 214 215 213 214 220 227 233 238 247 255 257 256 257 257 257 256 254 251 248 247 247 248 249 252 255 258 263 267 265 262 261
184 189 191 187 186 187 191 199 195 180 183 197 201 196 186 184 200 204 193 194 198 203 214 213 205 213 224 225 225 224 224 228 224 212 206 205 205 213 221 226 228 229 226 220 219 221 220 224 227 222 218 215 211 211 212 210 211 211 211 211 215 225 236 243 253 262 264 264 263 262 260 258 256 254 250 246 244 244 244 246 250 255 258 260 261 260 258
185 190 193 186 184 188 192 194 186 178 184 193 196 198 189 181 193 205 195 193 198 200 205 207 203 206 210 213 219 224 225 227 224 218 216 214 212 215 221 224 225 226 223 214 211 214 217 220 224 225 223 220 218 217 215 213 211 211 213 215 218 229 244 254 261 267 269 271 271 270 266 260 256 256 253 247 241 239 239 242 247 252 256 257 254 252 251
187 191 195 188 183 186 189 186 181 181 186 189 192 198 194 183 187 202 202 198 200 200 201 204 207 210 209 208 214 221 224 225 227 229 230 229 228 231 232 231 230 230 227 218 212 211 213 216 220 223 225 225 224 224 222 220 220 222 224 227 230 237 247 254 260 266 269 273 276 278 274 265 259 255 251 245 238 235 237 240 243 247 252 256 256 253 249
189 192 196 193 185 184 183 179 181 185 185 185 191 198 197 188 185 196 207 205 202 202 205 207 211 216 218 218 218 221 223 224 227 231 234 236 240 242 240 239 239 239 238 235 230 223 219 220 223 227 230 232 232 233 234 234 237 240 241 242 244 247 250 253 257 262 265 269 275 278 273 266 260 253 246 242 238 235 236 239 242 246 250 255 258 256 251
192 193 196 195 186 182 180 179 184 186 182 180 187 195 195 189 186 193 204 206 203 205 209 211 214 219 223 226 225 225 225 225 226 230 234 238 242 242 243 244 243 242 242 241 239 237 233 230 229 230 232 234 236 237 239 240 244 248 250 251 252 253 254 253 253 258 260 262 269 270 263 262 263 254 243 238 236 236 237 239 242 247 251 253 252 250 249
194 194 196 193 186 182 179 179 184 186 181 178 183 191 192 188 188 195 202 203 205 208 210 212 216 220 222 225 227 227 225 224 225 230 236 239 241 241 241 241 239 237 239 239 238 239 239 238 238 236 235 236 237 239 240 242 246 250 253 254 254 255 257 254 252 255 257 259 263 259 251 255 262 256 245 238 236 238 239 239 241 246 250 251 250 248 247
195 196 197 193 187 184 179 179 185 187 183 179 179 185 187 186 189 197 199 197 200 207 211 214 217 218 219 222 225 227 225 222 222 227 231 234 236 238 239 238 235 233 234 233 232 235 240 243 243 241 239 239 240 242 243 244 247 250 253 253 252 252 254 253 252 254 256 260 259 249 244 249 255 255 249 241 237 239 241 242 243 246 248 249 248 247 245
197 199 201 197 192 186 180 180 186 188 185 183 179 180 183 185 191 196 197 195 199 206 212 215 216 217 218 218 221 225 226 223 219 222 225 228 229 232 236 237 237 236 235 231 228 230 236 239 240 241 241 241 241 243 244 245 248 251 252 250 249 248 249 251 252 253 255 258 256 244 240 244 247 249 248 243 239 240 241 242 244 245 246 246 244 243 241
200 201 205 204 199 191 183 182 186 188 186 185 182 180 181 184 191 197 198 199 202 206 212 216 216 217 218 216 216 221 225 225 223 222 224 226 228 230 234 238 239 238 238 235 231 229 229 229 233 239 241 242 243 243 243 245 247 248 248 247 246 247 247 248 250 252 253 255 252 243 238 242 245 246 247 245 243 242 242 243 244 244 245 243 239 238 237
202 204 207 210 207 198 188 185 186 188 188 187 186 183 181 183 189 196 200 202 203 205 211 216 217 218 220 220 218 220 224 224 222 220 222 225 229 232 234 235 236 235 235 234 232 230 228 226 227 230 233 236 238 238 238 240 241 241 243 244 244 245 245 244 246 249 251 251 249 242 238 241 244 246 248 250 249 248 247 246 245 245 244 241 237 235 234
203 205 208 212 213 207 196 190 189 189 189 190 190 186 183 185 189 194 199 204 205 206 209 213 215 218 222 223 223 224 224 222 218 217 220 225 229 232 232 232 232 230 230 231 231 230 230 228 226 225 226 228 229 230 231 233 235 237 239 242 243 242 241 240 239 242 245 246 245 240 238 240 244 246 247 250 252 252 250 247 245 245 244 242 240 238 238
202 203 207 212 214 211 203 197 195 195 193 193 194 192 187 187 191 195 199 203 207 209 210 211 213 216 219 221 221 222 221 218 216 217 220 224 228 230 231 232 232 229 227 229 230 230 230 231 229 227 227 226 227 229 230 231 232 234 236 238 238 237 236 234 233 234 237 239 238 237 237 239 243 246 247 248 250 252 251 249 247 246 245 246 246 245 245
201 201 205 211 214 212 206 200 199 201 201 199 199 198 195 192 192 195 198 201 205 209 212 213 213 215 218 219 218 219 219 216 214 215 218 222 226 227 228 231 233 231 228 228 229 230 232 233 233 231 230 229 229 230 230 229 230 233 234 234 234 233 233 231 230 229 230 231 232 234 235 238 241 244 246 248 249 250 250 249 248 247 246 246 247 247 247
201 200 204 210 214 213 209 204 201 203 206 207 205 203 201 199 196 197 199 202 204 207 211 214 215 217 219 220 222 225 224 220 217 217 218 221 223 225 226 228 231 232 231 229 229 232 236 236 235 234 232 231 231 231 230 230 231 234 235 235 233 232 232 232 231 231 230 230 230 231 234 237 239 241 243 246 247 249 249 248 246 246 246 247 248 249 250
202 201 201 206 211 214 213 210 207 205 207 210 211 210 208 204 201 201 203 205 206 208 212 214 216 217 219 222 228 232 231 228 224 221 219 220 222 224 226 228 230 232 233 232 234 238 240 239 237 236 234 233 232 232 232 232 233 236 238 238 236 235 234 234 234 234 234 234 234 234 235 237 239 240 241 243 245 247 248 248 246 246 246 248 249 250 251
202 203 203 202 202 207 212 212 210 206 203 206 211 215 216 213 208 206 208 209 210 212 214 215 217 218 221 225 231 235 235 234 230 224 220 220 220 222 225 228 231 233 234 235 238 241 242 240 239 238 237 235 234 234 234 235 235 236 239 241 240 239 238 238 238 238 238 238 239 240 240 240 241 242 243 244 245 246 248 249 248 247 248 250 251 252 254
205 206 209 207 198 196 202 207 207 203 198 197 203 211 215 217 215 213 213 213 213 214 215 216 217 219 223 229 233 234 235 235 232 227 223 220 220 222 224 226 229 233 235 237 239 242 242 242 241 241 240 238 236 236 237 237 237 237 239 242 243 242 242 242 242 242 242 242 243 244 245 245 245 245 245 246 248 248 249 250 251 251 252 253 255 257 259
211 209 213 213 205 197 199 203 204 202 196 192 195 201 207 211 213 214 215 217 217 218 218 218 219 222 226 231 235 235 234 234 233 230 227 224 222 222 224 225 227 231 234 236 238 240 242 243 243 243 243 242 240 239 238 239 239 239 241 243 244 244 244 244 245 245 246 246 247 247 248 249 249 250 249 249 251 252 252 253 255 256 257 258 260 262 264
219 217 217 216 211 207 207 207 204 201 197 194 195 199 202 205 208 210 213 216 219 220 222 223 224 226 229 232 235 235 233 232 233 233 231 228 225 225 226 226 227 230 232 235 236 238 240 243 244 245 245 245 244 243 242 242 242 242 243 245 246 246 245 245 245 245 246 247 248 248 249 249 250 251 251 251 252 253 253 254 255 257 259 260 262 264 265
224 223 223 222 217 214 215 216 209 202 200 200 201 203 206 207 207 207 209 213 216 219 222 225 227 228 230 233 234 234 233 233 235 235 234 231 228 227 228 228 228 230 232 234 235 236 239 242 244 246 246 246 246 246 246 246 246 246 247 247 247 247 246 246 246 246 246 247 248 249 250 250 250 250 251 252 253 254 254 254 255 256 258 259 261 263 265
230 227 225 226 224 220 219 220 217 209 206 206 206 208 211 214 213 210 210 213 215 216 218 222 225 226 228 230 232 232 232 233 234 234 234 234 231 229 229 230 230 231 232 234 235 236 237 240 244 246 246 246 246 247 247 248 248 249 249 249 248 247 247 247 247 247 247 248 249 250 251 252 252 252 253 254 255 256 256 256 257 258 259 260 262 264 266
237 235 232 230 228 226 224 224 222 219 215 213 213 214 215 217 218 217 215 215 217 217 216 218 221 223 225 226 228 229 230 231 232 232 233 235 234 232 230 231 232 232 233 234 236 236 236 238 242 244 246 247 247 247 248 249 249 250 250 250 250 250 249 249 249 249 249 249 250 250 251 252 252 253 254 255 257 257 257 258 259 260 261 262 263 265 266
238 238 238 235 232 231 229 228 227 226 223 220 218 218 219 219 220 220 219 218 219 220 220 219 218 220 221 221 223 225 227 229 231 232 233 236 237 236 234 232 233 234 235 235 235 236 236 236 239 242 244 246 247 247 248 248 249 250 250 251 252 252 252 251 250 250 250 250 251 252 252 253 254 255 256 257 257 258 258 258 259 259 260 261 263 264 266
232 233 236 236 234 233 233 231 230 229 229 227 223 221 222 222 222 221 221 219 219 220 223 224 222 220 219 218 219 222 225 227 229 231 233 235 237 238 238 236 235 236 237 236 235 235 235 235 236 239 241 243 245 246 247 247 248 249 250 250 251 251 251 251 251 251 251 251 251 252 253 254 255 256 257 257 258 258 258 258 258 259 260 261 263 264 266
225 227 228 228 227 229 232 233 231 230 231 232 231 228 226 226 226 225 224 223 220 219 221 224 226 225 223 221 220 222 225 227 229 231 233 234 234 235 236 236 236 236 237 238 238 236 235 234 235 236 238 240 242 244 246 247 248 248 249 249 249 250 251 251 251 251 251 251 252 252 253 254 254 255 256 256 257 257 258 258 258 259 260 262 263 264 266
229 229 227 223 220 222 226 229 231 231 231 232 232 232 231 230 230 229 229 228 227 226 224 225 228 230 230 229 229 230 231 232 232 234 235 236 236 236 235 235 236 236 237 238 239 240 239 237 236 235 236 237 239 241 243 245 246 247 248 249 250 250 251 251 252 252 252 252 252 253 253 254 254 254 255 256 257 257 258 258 259 260 261 262 264 265 267
247 246 237 229 225 224 224 225 227 230 231 232 232 232 232 231 231 232 232 232 232 232 231 230 231 233 234 234 234 234 236 236 236 237 239 240 240 241 240 239 238 237 238 239 240 242 243 243 241 239 238 238 238 239 241 243 245 246 247 248 249 250 250 251 252 252 253 253 253 253 253 254 254 255 255 255 256 257 258 259 259 260 261 262 264 265 266
248 246 240 237 233 229 227 225 225 226 229 231 233 234 233 233 232 232 232 233 234 235 235 235 235 235 236 237 237 236 237 238 238 239 240 242 243 244 244 243 241 240 240 241 243 244 245 246 245 245 243 242 241 240 241 242 244 245 246 247 247 248 249 250 251 252 253 254 254 254 254 254 254 255 255 255 255 256 257 258 259 259 260 261 262 264 265
251 246 238 235 233 231 228 227 225 225 225 227 230 233 235 235 235 233 233 233 234 235 236 237 238 239 239 240 240 240 240 240 240 240 241 243 245 247 248 247 245 244 243 243 245 246 246 246 246 246 246 246 245 244 244 244 245 246 247 247 247 248 249 249 250 251 252 252 253 253 253 253 254 254 255 255 256 256 257 257 259 260 261 262 263 264 265
267 255 245 240 237 234 232 230 228 226 225 224 225 228 232 234 236 236 235 235 235 236 236 237 239 240 241 242 242 243 244 244 244 244 244 245 246 248 249 250 249 248 247 247 247 247 247 247 246 246 246 247 247 247 247 247 247 248 249 249 250 250 250 250 250 250 251 251 252 252 253 253 254 254 255 255 256 257 258 259 260 260 261 262 263 264 264
330 286 257 245 239 237 236 235 232 230 227 225 223 224 226 230 233 235 235 235 235 236 236 237 238 239 240 241 242 244 245 245 245 245 245 245 246 248 250 252 253 252 251 250 249 249 249 248 247 247 247 246 247 248 248 248 249 249 250 250 251 251 251 252 252 253 253 253 253 253 253 253 254 254 254 255 256 257 258 259 260 261 261 262 263 264 264
4 1 330 258 239 235 235 237 236 234 230 226 224 222 222 223 225 227 228 230 231 232 233 235 237 238 239 240 241 242 244 246 246 246 245 245 245 245 247 249 252 253 254 253 250 249 249 249 248 247 247 247 246 246 247 248 248 249 250 251 251 252 252 253 254 254 254 254 254 254 254 254 254 255 255 256 257 257 258 259 260 261 262 262 263 264 264
340 356 11 5 267 239 235 235 234 233 229 223 220 220 220 219 218 218 219 220 223 226 229 232 233 234 235 235 236 237 239 240 242 243 243 243 243 243 244 245 248 250 253 254 251 248 247 248 248 247 248 248 246 246 245 245 245 246 247 248 250 250 251 252 253 254 254 255 255 255 255 255 256 256 257 257 258 259 259 260 261 261 262 263 264 265 266
325 328 337 343 334 277 239 228 225 225 225 222 217 216 217 218 218 217 215 214 215 219 223 224 224 224 225 225 225 228 232 233 234 236 238 240 241 241 242 243 244 243 244 248 250 249 248 249 249 249 249 248 248 247 247 246 245 245 244 245 246 248 248 249 251 252 253 254 254 255 255 256 257 257 258 259 260 260 261 262 262 263 264 265 266 267 269
323 323 317 312 313 317 255 220 216 215 218 220 217 210 208 212 217 217 215 213 212 213 213 213 214 215 215 213 213 218 224 227 229 230 233 235 236 236 236 238 240 240 240 243 248 250 249 248 248 248 247 247 247 248 248 248 247 246 245 244 244 245 246 247 248 249 251 252 253 254 255 256 257 258 259 260 261 262 263 263 264 265 265 266 267 268 268
329 327 319 302 291 288 134 173 208 211 210 214 215 209 203 204 208 211 211 212 212 210 208 208 207 206 205 206 211 217 221 221 222 225 227 227 227 229 231 233 235 238 239 242 245 247 247 246 245 244 244 245 245 245 246 247 247 247 247 245 245 245 246 246 247 248 250 251 252 253 254 255 256 257 258 260 261 262 262 263 264 264 265 265 265 265 266
339 331 327 310 283 251 180 152 213 222 210 207 210 210 208 207 206 204 203 204 205 207 206 202 196 193 196 203 210 216 220 220 220 222 223 222 221 224 227 229 232 235 239 241 243 244 245 244 243 242 242 243 243 243 243 244 245 246 246 246 246 245 246 246 246 247 249 250 251 252 253 254 255 256 258 259 259 260 261 262 262 263 263 263 263 263 263
346 343 339 320 263 222 196 175 125 166 190 198 202 202 204 207 205 199 195 194 197 200 199 193 188 190 198 205 208 211 214 217 218 220 222 222 222 222 224 226 228 231 234 238 240 242 242 241 241 241 241 241 242 242 242 242 243 244 244 245 245 246 246 246 247 247 248 249 250 252 253 254 255 256 257 257 258 259 260 260 261 262 262 262 262 262 262
346 356 3 11 182 184 182 173 88 84 128 173 196 193 193 198 202 201 199 198 198 196 192 190 191 197 204 208 210 211 213 215 219 222 225 226 225 224 225 226 228 230 233 236 239 240 241 241 241 241 242 242 242 243 243 243 244 244 245 245 245 246 247 247 248 249 249 250 252 253 255 256 256 257 257 257 257 258 259 260 261 261 261 262 262 263 263
349 343 352 47 137 152 156 156 155 158 158 161 181 194 194 198 201 203 204 202 197 192 189 189 195 201 207 211 214 215 215 217 222 228 230 230 229 229 228 229 231 233 237 240 241 242 244 244 244 244 245 245 246 246 246 247 247 247 247 248 248 249 249 250 251 252 253 254 256 257 258 259 259 259 259 258 258 259 261 262 263 264 264 265 266 267 268
5 356 340 330 138 148 153 158 170 187 198 201 203 204 204 201 198 198 199 197 195 192 193 196 200 205 209 213 214 215 216 219 224 228 231 233 233 231 228 229 233 236 239 241 243 244 245 246 246 246 247 247 248 249 250 251 252 252 253 253 254 254 255 256 257 258 259 260 261 262 262 262 262 262 262 262 262 264 265 266 267 268 269 270 271 272 273
4 3 359 353 277 196 187 181 184 195 206 214 214 210 208 206 200 193 193 195 197 198 201 206 213 218 221 220 218 217 218 221 226 231 234 236 234 231 228 229 235 239 240 242 244 245 245 246 247 248 248 249 250 251 252 253 255 256 257 257 258 259 260 260 261 262 263 264 265 265 265 265 265 265 265 266 267 268 269 269 270 271 271 272 273 274 275
345 351 354 355 352 230 208 211 210 205 206 212 215 212 209 209 208 206 205 207 208 208 209 212 218 223 225 225 225 225 225 228 233 239 239 236 234 233 233 234 236 239 242 245 247 248 248 248 248 249 250 251 252 253 255 257 259 259 259 259 258 258 259 260 262 264 266 267 268 267 267 267 266 266 267 267 268 269 269 269 269 269 270 271 273 273 274
326 329 334 341 343 337 298 228 218 210 205 208 213 215 214 212 212 213 215 219 220 219 219 221 222 223 224 226 227 227 227 231 236 240 239 235 232 232 234 234 235 237 240 242 245 249 252 252 252 252 252 253 253 255 256 256 256 255 254 253 254 257 260 263 265 266 268 268 268 268 268 267 267 267 267 268 269 269 269 269 269 270 271 272 273 273 273
317 316 314 315 318 322 325 321 280 215 200 203 213 220 223 223 222 221 222 224 228 230 231 230 227 224 223 224 226 227 228 231 234 236 237 236 235 235 235 235 236 238 239 240 242 246 249 250 251 252 252 251 250 251 250 250 250 250 251 254 259 263 266 267 268 268 269 268 267 267 267 267 267 267 268 269 270 270 271 271 271 272 272 272 273 273 273
315 310 307 302 296 294 300 306 307 288 229 208 208 214 219 223 226 227 227 227 228 230 232 234 233 230 227 225 224 225 228 231 234 237 240 240 240 239 238 237 239 242 244 244 246 247 247 245 246 248 250 250 249 250 252 254 256 257 258 260 262 265 266 268 269 268 267 265 264 264 265 265 266 267 268 269 270 270 272 272 272 272 273 273 273 273 273
319 312 306 300 293 286 281 278 280 282 275 247 221 212 212 216 221 224 226 227 227 226 226 227 228 227 224 222 221 223 225 228 233 239 244 246 244 242 239 238 239 242 245 246 247 248 248 247 247 249 252 255 256 258 260 262 264 265 265 265 265 266 266 266 265 264 262 261 261 262 264 265 265 266 268 268 269 270 271 272 273 273 274 274 273 273 273
321 317 311 303 295 287 280 273 267 265 264 261 251 236 224 218 218 219 221 224 226 228 228 228 226 225 223 222 221 222 224 225 227 232 238 242 243 241 239 238 238 240 241 242 243 243 243 243 243 246 249 252 256 258 260 261 262 263 263 264 264 263 261 259 258 258 258 259 260 262 263 264 266 267 267 268 269 269 270 270 271 271 271 271 271 271 272
Height
5726 5732 5738 5742 5746 5752 5757 5761 5767 5773 5778 5782 5786 5790 5794 5798 5801 5805 5808 5811 5812 5815 5818 5820 5822 5824 5824 5823 5823 5827 5830 5833 5835 5837 5840 5843 5845 5846 5849 5853 5856 5860 5862 5864 5867 5869 5872 5873 5875 5877 5879 5881 5884 5885 5887 5889 5890 5892 5893 5895 5898 5899 5902 5904 5906 5908 5910 5912 5914 5916 5918 5919 5921 5923 5924 5925 5927 5928 5929 5930 5930 5931 5931 5932 5932 5933 5933
5720 5727 5733 5737 5741 5747 5752 5757 5764 5770 5775 5779 5783 5789 5793 5796 5800 5804 5807 5809 5812 5814 5815 5815 5817 5820 5820 5819 5821 5824 5827 5829 5833 5836 5839 5841 5842 5844 5847 5850 5853 5856 5858 5860 5863 5866 5868 5870 5872 5874 5877 5879 5882 5884 5886 5888 5889 5891 5892 5894 5896 5898 5901 5902 5904 5906 5908 5910 5912 5913 5915 5917 5919 5920 5921 5923 5924 5925 5926 5927 5928 5929 5929 5930 5931 5931 5931
5716 5723 5729 5732 5735 5740 5747 5753 5759 5765 5771 5776 5781 5786 5791 5794 5798 5802 5805 5808 5810 5811 5811 5811 5813 5815 5816 5817 5818 5822 5824 5826 5830 5834 5836 5838 5841 5843 5846 5848 5850 5853 5856 5858 5861 5863 5865 5867 5870 5872 5875 5877 5880 5883 5885 5887 5889 5890 5892 5894 5896 5898 5900 5901 5903 5904 5906 5908 5910 5911 5913 5914 5916 5918 5919 5920 5922 5923 5924 5925 5926 5927 5927 5928 5929 5929 5929
5716 5721 5724 5728 5731 5736 5743 5749 5755 5762 5768 5772 5777 5783 5787 5792 5797 5800 5803 5806 5806 5806 5806 5808 5810 5812 5814 5815 5816 5819 5822 5824 5827 5830 5833 5836 5840 5843 5845 5847 5849 5852 5854 5857 5860 5862 5864 5866 5868 5871 5873 5876 5879 5882 5884 5886 5888 5890 5892 5894 5895 5897 5899 5900 5902 5903 5905 5906 5908 5909 5911 5912 5913 5914 5916 5917 5918 5920 5922 5922 5923 5924 5925 5926 5926 5927 5928
5711 5715 5720 5726 5730 5733 5739 5746 5755 5763 5768 5771 5775 5780 5785 5791 5795 5797 5800 5803 5804 5803 5804 5806 5808 5811 5812 5813 5814 5817 5821 5823 5825 5828 5832 5835 5838 5841 5843 5845 5847 5849 5852 5855 5857 5859 5862 5864 5866 5869 5872 5875 5878 5880 5882 5885 5886 5889 5891 5893 5894 5896 5897 5899 5900 5902 5903 5904 5906 5907 5908 5909 5910 5911 5913 5914 5916 5917 5919 5919 5920 5922 5923 5924 5924 5925 5926
5706 5710 5716 5721 5724 5730 5739 5747 5756 5761 5764 5767 5772 5777 5782 5788 5792 5794 5796 5798 5800 5800 5801 5803 5805 5808 5810 5812 5813 5816 5819 5821 5823 5826 5829 5831 5834 5837 5839 5842 5844 5846 5849 5852 5855 5857 5859 5862 5864 5867 5870 5873 5875 5878 5880 5882 5884 5886 5889 5890 5892 5894 5896 5897 5899 5900 5901 5902 5903 5904 5905 5906 5908 5909 5910 5911 5912 5914 5915 5916 5918 5919 5920 5921 5922 5923 5924
5700 5706 5711 5715 5720 5730 5739 5746 5752 5755 5757 5762 5766 5769 5773 5778 5781 5785 5788 5791 5793 5794 5796 5798 5801 5803 5805 5808 5811 5813 5816 5819 5822 5824 5825 5828 5831 5834 5837 5839 5842 5844 5847 5850 5853 5855 5858 5860 5862 5865 5867 5870 5872 5874 5877 5879 5882 5884 5886 5888 5890 5892 5894 5895 5897 5898 5899 5900 5901 5902 5902 5903 5905 5906 5907 5908 5909 5910 5912 5914 5915 5916 5917 5918 5919 5921 5922
5693 5699 5706 5710 5717 5728 5735 5740 5744 5747 5751 5758 5761 5761 5765 5769 5774 5779 5782 5785 5788 5790 5792 5794 5795 5797 5799 5803 5807 5811 5814 5818 5820 5821 5823 5826 5829 5832 5834 5837 5840 5842 5845 5848 5851 5854 5856 5858 5861 5863 5865 5867 5869 5872 5874 5876 5879 5881 5883 5885 5887 5889 5891 5893 5895 5896 5897 5898 5899 5899 5900 5900 5901 5903 5904 5905 5906 5907 5909 5911 5912 5913 5914 5915 5916 5917 5918
5689 5695 5701 5706 5714 5722 5727 5730 5735 5739 5744 5750 5753 5755 5760 5766 5772 5776 5776 5778 5783 5786 5787 5790 5791 5793 5796 5800 5804 5809 5812 5815 5817 5820 5822 5824 5827 5830 5832 5835 5838 5840 5842 5845 5848 5850 5853 5855 5857 5860 5862 5864 5866 5869 5871 5874 5876 5878 5880 5882 5884 5886 5888 5890 5892 5893 5895 5896 5897 5897 5897 5898 5899 5900 5901 5902 5903 5904 5905 5907 5909 5910 5912 5913 5914 5914 5915
5687 5693 5698 5705 5710 5713 5717 5722 5727 5732 5737 5741 5745 5750 5756 5762 5767 5768 5768 5772 5779 5783 5784 5785 5787 5790 5794 5798 5801 5804 5808 5811 5815 5818 5820 5822 5824 5827 5829 5832 5834 5837 5839 5842 5844 5847 5850 5852 5854 5857 5859 5861 5864 5866 5869 5871 5873 5875 5877 5879 5881 5883 5885 5887 5889 5890 5892 5893 5894 5895 5895 5896 5896 5897 5898 5899 5900 5901 5902 5904 5905 5907 5908 5909 5910 5912 5913
5683 5689 5694 5700 5703 5705 5712 5719 5723 5727 5732 5736 5739 5744 5750 5755 5759 5760 5762 5766 5772 5776 5778 5779 5782 5786 5791 5794 5797 5800 5804 5808 5812 5815 5816 5819 5821 5824 5826 5828 5830 5833 5836 5838 5841 5844 5846 5849 5851 5853 5855 5858 5861 5863 5865 5867 5869 5871 5874 5876 5878 5879 5881 5883 5885 5887 5888 5890 5891 5892 5893 5893 5894 5894 5895 5896 5897 5898 5899 5900 5902 5903 5904 5906 5907 5908 5910
5678 5684 5688 5692 5696 5700 5707 5714 5717 5721 5728 5733 5735 5738 5742 5747 5751 5754 5757 5760 5764 5768 5771 5771 5775 5780 5785 5790 5794 5797 5801 5806 5809 5812 5814 5816 5819 5820 5822 5825 5828 5831 5833 5835 5838 5840 5843 5845 5847 5849 5851 5854 5857 5859 5861 5863 5865 5868 5870 5872 5873 5875 5877 5879 5881 5883 5885 5886 5888 5889 5890 5891 5891 5892 5892 5893 5894 5895 5896 5897 5898 5899 5901 5902 5904 5905 5906
5675 5680 5683 5686 5691 5696 5702 5707 5710 5716 5723 5728 5730 5730 5734 5740 5745 5748 5752 5755 5759 5763 5764 5765 5769 5775 5781 5786 5791 5794 5797 5802 5807 5810 5813 5815 5816 5818 5821 5823 5826 5828 5831 5833 5835 5837 5840 5842 5844 5846 5848 5850 5853 5855 5857 5860 5862 5864 5865 5867 5869 5871 5873 5875 5877 5879 5881 5883 5885 5886 5887 5888 5888 5889 5890 5890 5891 5893 5894 5894 5895 5896 5898 5899 5900 5902 5903
5673 5677 5680 5681 5683 5690 5696 5701 5705 5710 5716 5720 5722 5725 5731 5735 5739 5744 5749 5751 5754 5757 5760 5762 5768 5774 5779 5783 5787 5791 5795 5800 5805 5808 5810 5812 5814 5816 5819 5822 5824 5826 5828 5830 5832 5835 5837 5839 5841 5843 5845 5847 5849 5852 5854 5856 5858 5860 5862 5863 5865 5867 5869 5871 5874 5876 5877 5879 5881 5882 5884 5884 5885 5886 5887 5888 5888 5890 5891 5892 5893 5894 5895 5896 5897 5899 5900
5668 5673 5677 5678 5680 5687 5694 5698 5700 5704 5709 5713 5717 5722 5727 5731 5736 5742 5746 5748 5750 5753 5755 5760 5767 5772 5776 5780 5785 5790 5794 5798 5802 5805 5807 5808 5810 5812 5815 5818 5820 5823 5825 5827 5829 5832 5834 5836 5838 5840 5842 5844 5847 5848 5851 5853 5855 5857 5858 5860 5862 5863 5865 5867 5869 5871 5873 5875 5877 5879 5880 5881 5882 5883 5884 5885 5886 5886 5887 5889 5890 5891 5892 5893 5894 5895 5897
5661 5666 5670 5672 5675 5683 5691 5694 5696 5700 5705 5709 5713 5717 5723 5728 5733 5738 5741 5745 5748 5751 5754 5758 5764 5768 5773 5778 5782 5787 5791 5795 5799 5801 5802 5804 5806 5808 5811 5814 5816 5819 5822 5824 5826 5829 5832 5834 5835 5837 5839 5842 5844 5846 5848 5850 5852 5854 5855 5857 5859 5860 5861 5863 5865 5867 5869 5871 5873 5875 5877 5878 5879 5880 5881 5882 5883 5883 5884 5886 5887 5888 5889 5890 5891 5892 5893
5653 5658 5663 5666 5670 5678 5685 5688 5690 5695 5700 5704 5709 5713 5718 5723 5728 5732 5736 5740 5744 5748 5752 5756 5761 5765 5770 5774 5779 5783 5787 5790 5793 5796 5798 5799 5801 5804 5807 5810 5812 5815 5817 5820 5823 5826 5829 5831 5832 5835 5837 5839 5841 5843 5845 5847 5849 5850 5852 5854 5855 5857 5858 5860 5861 5863 5865 5867 5869 5871 5873 5874 5875 5877 5877 5878 5879 5880 5881 5883 5884 5885 5886 5886 5887 5888 5889
5651 5657 5662 5664 5668 5674 5681 5685 5688 5693 5697 5701 5706 5711 5715 5719 5725 5730 5733 5737 5740 5745 5749 5753 5758 5762 5766 5770 5775 5779 5783 5786 5789 5792 5794 5796 5798 5800 5804 5807 5809 5811 5813 5816 5820 5823 5826 5828 5829 5832 5834 5836 5838 5840 5842 5844 5846 5847 5848 5850 5852 5854 5855 5857 5858 5860 5861 5863 5865 5866 5868 5870 5871 5873 5874 5875 5876 5877 5878 5879 5880 5881 5882 5883 5884 5885 5885
5652 5656 5657 5659 5665 5672 5678 5683 5688 5691 5694 5698 5702 5707 5711 5717 5722 5726 5730 5734 5738 5743 5746 5750 5754 5759 5763 5767 5770 5774 5778 5781 5785 5788 5791 5793 5795 5797 5800 5803 5806 5807 5809 5813 5817 5820 5822 5824 5826 5828 5831 5833 5835 5837 5839 5840 5842 5843 5845 5846 5848 5851 5852 5854 5855 5856 5858 5859 5860 5862 5864 5865 5867 5868 5870 5871 5872 5873 5874 5875 5877 5878 5878 5879 5880 5880 5881
5648 5650 5651 5656 5665 5672 5675 5679 5681 5683 5687 5693 5698 5703 5708 5713 5718 5722 5725 5730 5735 5740 5744 5747 5751 5754 5758 5761 5764 5769 5773 5776 5780 5783 5787 5789 5791 5794 5796 5799 5802 5804 5806 5809 5812 5815 5818 5820 5822 5824 5827 5829 5831 5833 5835 5837 5838 5840 5841 5843 5845 5847 5849 5850 5852 5853 5854 5856 5857 5858 5860 5861 5862 5864 5865 5866 5867 5869 5870 5871 5872 5873 5874 5874 5875 5875 5875
5643 5647 5650 5654 5661 5666 5668 5669 5670 5673 5679 5685 5690 5696 5702 5708 5714 5719 5722 5727 5732 5736 5739 5743 5747 5750 5753 5756 5761 5765 5769 5772 5775 5778 5782 5785 5788 5790 5793 5796 5798 5800 5803 5805 5808 5811 5813 5816 5818 5820 5822 5825 5827 5829 5831 5833 5835 5836 5838 5839 5841 5843 5845 5847 5848 5849 5851 5852 5853 5855 5856 5857 5858 5860 5861 5862 5863 5864 5865 5866 5867 5868 5869 5869 5869 5870 5870
5639 5642 5643 5645 5651 5656 5657 5657 5661 5668 5674 5678 5682 5689 5695 5701 5708 5714 5718 5722 5726 5730 5734 5738 5743 5746 5749 5753 5757 5761 5765 5768 5770 5773 5777 5781 5784 5786 5789 5792 5794 5796 5799 5801 5804 5807 5809 5811 5813 5815 5818 5820 5823 5825 5827 5829 5831 5833 5834 5836 5838 5839 5841 5843 5844 5846 5847 5848 5849 5851 5852 5853 5854 5856 5857 5858 5858 5859 5860 5862 5862 5863 5863 5864 5864 5865 5865
5634 5638 5639 5642 5648 5651 5650 5652 5658 5668 5676 5680 5684 5688 5692 5697 5703 5708 5711 5715 5720 5724 5729 5734 5738 5742 5746 5750 5753 5756 5760 5763 5765 5768 5772 5776 5779 5782 5785 5788 5790 5793 5795 5797 5800 5803 5805 5807 5809 5811 5813 5816 5818 5820 5823 5825 5827 5829 5830 5832 5834 5835 5837 5838 5840 5841 5842 5843 5844 5845 5847 5848 5850 5851 5852 5853 5853 5854 5855 5856 5857 5857 5858 5858 5859 5859 5859
5630 5634 5636 5641 5647 5650 5651 5654 5660 5670 5677 5680 5684 5688 5691 5695 5700 5703 5706 5710 5715 5719 5724 5729 5733 5738 5742 5745 5748 5751 5755 5758 5761 5763 5767 5771 5775 5778 5780 5783 5786 5789 5791 5793 5796 5799 5801 5803 5805 5807 5809 5811 5813 5815 5817 5820 5822 5824 5825 5828 5829 5831 5832 5834 5835 5836 5837 5838 5839 5840 5841 5843 5844 5845 5846 5847 5848 5849 5850 5851 5851 5851 5852 5852 5853 5853 5853
5629 5631 5634 5638 5644 5649 5652 5654 5660 5667 5674 5677 5681 5685 5688 5691 5696 5700 5704 5708 5711 5715 5720 5724 5727 5732 5736 5739 5743 5746 5750 5753 5756 5758 5761 5765 5769 5773 5775 5779 5782 5785 5787 5789 5792 5795 5797 5799 5800 5802 5804 5806 5808 5810 5812 5814 5816 5818 5820 5822 5824 5825 5827 5829 5830 5831 5832 5833 5834 5835 5837 5838 5839 5840 5841 5842 5843 5844 5845 5845 5845 5846 5846 5846 5847 5847 5847
5628 5631 5633 5637 5642 5647 5651 5654 5657 5663 5668 5673 5677 5680 5682 5686 5690 5695 5700 5704 5707 5710 5714 5718 5721 5725 5729 5733 5737 5740 5744 5748 5751 5754 5757 5760 5764 5767 5771 5774 5777 5780 5782 5785 5787 5790 5793 5795 5796 5797 5798 5801 5803 5805 5807 5809 5811 5813 5815 5816 5818 5820 5822 5823 5825 5826 5827 5828 5829 5830 5831 5832 5833 5834 5835 5836 5837 5838 5839 5839 5840 5840 5841 5841 5841 5841 5841
5624 5627 5629 5632 5639 5645 5648 5651 5654 5658 5662 5666 5670 5673 5677 5680 5684 5689 5694 5699 5703 5706 5709 5713 5716 5719 5723 5727 5731 5735 5738 5742 5746 5749 5752 5755 5758 5762 5765 5769 5772 5774 5777 5779 5782 5785 5787 5790 5791 5792 5794 5796 5798 5799 5801 5803 5805 5807 5809 5811 5814 5815 5816 5818 5819 5820 5822 5823 5823 5824 5825 5826 5827 5828 5829 5830 5831 5832 5833 5834 5834 5834 5835 5835 5835 5835 5835
5616 5619 5621 5627 5634 5639 5641 5643 5648 5653 5656 5660 5665 5669 5673 5676 5679 5684 5688 5694 5698 5702 5705 5708 5712 5715 5719 5722 5726 5729 5733 5737 5740 5744 5747 5750 5753 5756 5759 5763 5766 5769 5771 5774 5777 5779 5782 5784 5786 5787 5789 5791 5792 5794 5796 5798 5799 5802 5804 5806 5808 5809 5810 5811 5812 5814 5816 5817 5818 5818 5819 5820 5822 5823 5823 5824 5825 5826 5827 5828 5828 5828 5829 5829 5829 5829 5829
5608 5611 5613 5619 5626 5629 5630 5633 5640 5645 5649 5653 5659 5665 5669 5672 5675 5679 5683 5688 5692 5696 5700 5704 5707 5710 5714 5718 5722 5725 5729 5732 5735 5738 5741 5745 5748 5751 5754 5757 5760 5763 5766 5768 5771 5773 5776 5778 5780 5782 5784 5785 5787 5789 5790 5792 5794 5796 5798 5799 5801 5803 5804 5805 5806 5808 5809 5811 5812 5813 5813 5814 5815 5816 5817 5818 5818 5819 5820 5821 5822 5822 5823 5822 5822 5822 5822
5603 5605 5607 5611 5615 5617 5620 5625 5631 5636 5640 5643 5648 5655 5660 5665 5668 5673 5678 5682 5686 5691 5695 5699 5702 5705 5708 5712 5717 5721 5724 5727 5731 5734 5736 5739 5742 5745 5748 5752 5755 5758 5760 5763 5765 5767 5769 5771 5774 5776 5778 5780 5781 5783 5785 5786 5789 5791 5792 5793 5795 5797 5798 5799 5800 5802 5803 5805 5806 5807 5807 5808 5809 5810 5811 5812 5812 5812 5813 5814 5816 5816 5816 5815 5815 5815 5815
5601 5602 5603 5606 5607 5609 5612 5617 5622 5626 5630 5634 5638 5643 5649 5655 5660 5665 5670 5675 5679 5684 5689 5694 5697 5699 5701 5706 5712 5716 5719 5722 5726 5729 5731 5733 5736 5738 5741 5744 5748 5752 5755 5758 5760 5762 5763 5765 5768 5770 5772 5773 5775 5777 5779 5781 5783 5785 5787 5787 5789 5790 5791 5793 5794 5796 5797 5798 5800 5801 5801 5801 5802 5803 5804 5805 5805 5806 5806 5807 5808 5810 5810 5809 5809 5809 5809
5599 5600 5601 5602 5603 5604 5607 5609 5612 5616 5621 5625 5629 5634 5640 5645 5651 5657 5662 5667 5671 5676 5681 5686 5690 5692 5694 5699 5705 5709 5712 5716 5720 5723 5725 5727 5729 5731 5733 5736 5741 5746 5750 5753 5754 5756 5757 5759 5761 5763 5765 5766 5769 5771 5773 5775 5778 5779 5780 5781 5782 5784 5785 5787 5789 5790 5791 5792 5793 5794 5794 5795 5796 5797 5797 5798 5799 5799 5799 5799 5800 5802 5802 5802 5801 5802 5802
5597 5598 5598 5599 5599 5600 5602 5604 5606 5609 5612 5616 5620 5626 5631 5636 5642 5648 5655 5660 5664 5669 5675 5679 5682 5685 5688 5692 5697 5701 5705 5709 5713 5717 5719 5721 5723 5724 5726 5729 5734 5740 5744 5746 5748 5749 5750 5752 5754 5756 5757 5759 5762 5764 5766 5768 5771 5772 5772 5773 5776 5778 5780 5781 5783 5783 5784 5785 5786 5786 5787 5788 5789 5790 5790 5790 5791 5791 5791 5792 5794 5795 5794 5793 5794 5795 5796
5596 5596 5596 5596 5597 5597 5598 5600 5601 5603 5605 5608 5612 5617 5623 5628 5633 5640 5647 5653 5658 5663 5668 5672 5674 5678 5681 5686 5691 5695 5699 5703 5706 5709 5713 5715 5717 5718 5720 5723 5727 5731 5736 5739 5740 5741 5742 5744 5747 5748 5750 5753 5755 5756 5758 5761 5764 5764 5765 5767 5769 5771 5773 5774 5775 5776 5777 5778 5779 5779 5780 5782 5783 5783 5783 5783 5784 5784 5784 5785 5787 5787 5786 5785 5786 5787 5787
5595 5594 5594 5594 5594 5595 5596 5596 5598 5599 5601 5603 5606 5610 5615 5620 5625 5632 5639 5644 5650 5655 5659 5662 5666 5671 5675 5680 5685 5689 5691 5694 5698 5702 5706 5709 5712 5714 5717 5719 5720 5723 5727 5730 5732 5733 5734 5736 5739 5741 5743 5745 5747 5749 5751 5754 5756 5757 5758 5760 5762 5764 5766 5767 5768 5769 5770 5771 5772 5773 5774 5775 5775 5775 5775 5776 5776 5776 5776 5777 5778 5778 5777 5777 5778 5779 5778
5594 5593 5592 5591 5591 5592 5593 5593 5594 5596 5597 5599 5601 5604 5608 5612 5617 5623 5629 5634 5639 5644 5648 5653 5659 5664 5668 5673 5678 5681 5683 5687 5691 5695 5699 5703 5706 5709 5712 5713 5714 5715 5718 5720 5723 5726 5727 5728 5730 5733 5735 5737 5739 5742 5744 5746 5748 5750 5752 5752 5754 5756 5759 5760 5761 5762 5762 5763 5765 5765 5765 5766 5767 5767 5767 5767 5768 5768 5768 5768 5769 5769 5769 5769 5769 5769 5768
5594 5593 5592 5591 5590 5590 5590 5591 5592 5593 5594 5596 5597 5599 5601 5605 5609 5613 5618 5624 5629 5634 5640 5646 5651 5656 5660 5665 5670 5674 5678 5681 5684 5686 5690 5695 5698 5701 5704 5706 5709 5711 5711 5711 5713 5717 5719 5720 5723 5725 5726 5728 5731 5734 5736 5738 5740 5742 5743 5744 5745 5748 5751 5752 5753 5754 5754 5755 5756 5756 5756 5757 5758 5758 5758 5759 5759 5760 5760 5760 5761 5761 5760 5760 5760 5760 5760
5593 5592 5591 5591 5590 5589 5589 5589 5589 5590 5592 5593 5594 5595 5597 5600 5602 5606 5611 5616 5621 5627 5632 5637 5641 5646 5652 5658 5663 5668 5671 5674 5676 5679 5683 5687 5690 5693 5696 5698 5702 5704 5704 5703 5704 5708 5712 5714 5716 5717 5719 5720 5723 5725 5727 5729 5732 5734 5735 5736 5738 5740 5742 5743 5745 5745 5745 5745 5747 5748 5748 5749 5749 5750 5750 5750 5751 5751 5751 5752 5752 5752 5752 5751 5751 5751 5751
5593 5592 5591 5590 5589 5588 5588 5587 5588 5589 5590 5591 5592 5593 5595 5596 5599 5603 5608 5611 5615 5619 5623 5626 5631 5638 5646 5651 5656 5660 5663 5666 5669 5672 5675 5678 5682 5685 5687 5690 5693 5695 5696 5695 5696 5700 5704 5706 5708 5710 5712 5713 5715 5716 5718 5720 5722 5725 5727 5729 5730 5732 5733 5735 5736 5736 5736 5736 5738 5739 5739 5740 5741 5741 5741 5742 5742 5742 5742 5743 5743 5743 5743 5742 5742 5742 5742
5593 5592 5590 5589 5589 5588 5588 5587 5587 5588 5588 5589 5590 5592 5593 5594 5596 5600 5604 5607 5609 5612 5616 5620 5627 5635 5642 5647 5652 5656 5658 5660 5664 5667 5669 5672 5675 5677 5679 5682 5684 5686 5687 5688 5690 5692 5695 5698 5701 5702 5704 5705 5707 5708 5710 5711 5713 5716 5718 5720 5722 5723 5724 5726 5727 5727 5727 5728 5729 5730 5730 5731 5732 5732 5733 5733 5733 5733 5733 5733 5733 5734 5733 5733 5733 5733 5733
5593 5591 5590 5589 5588 5588 5588 5587 5587 5587 5587 5587 5589 5591 5592 5593 5595 5596 5599 5603 5607 5609 5613 5618 5625 5631 5637 5642 5647 5650 5652 5655 5658 5661 5664 5666 5669 5671 5672 5674 5677 5678 5680 5681 5683 5685 5688 5690 5692 5693 5695 5697 5698 5700 5701 5703 5704 5706 5708 5710 5712 5713 5715 5717 5718 5719 5719 5720 5720 5721 5722 5723 5723 5724 5724 5724 5724 5724 5725 5725 5724 5724 5724 5724 5724 5724 5724
5594 5592 5590 5589 5588 5588 5588 5588 5587 5587 5587 5588 5589 5590 5591 5593 5594 5595 5597 5601 5605 5608 5611 5616 5622 5626 5631 5635 5639 5642 5645 5648 5651 5655 5658 5660 5661 5663 5665 5667 5669 5671 5673 5674 5675 5678 5680 5682 5683 5684 5686 5688 5690 5691 5693 5694 5695 5697 5699 5701 5702 5704 5705 5707 5709 5710 5711 5711 5712 5712 5713 5714 5714 5715 5715 5716 5716 5716 5716 5716 5716 5716 5716 5715 5715 5715 5715
5596 5594 5592 5591 5589 5588 5588 5588 5588 5588 5588 5589 5589 5590 5591 5592 5594 5595 5597 5600 5604 5607 5611 5616 5620 5624 5627 5631 5634 5637 5640 5643 5646 5649 5652 5654 5655 5657 5660 5661 5662 5664 5666 5667 5669 5671 5673 5674 5676 5677 5678 5680 5681 5683 5684 5685 5687 5688 5690 5692 5693 5695 5697 5698 5700 5701 5702 5702 5703 5703 5704 5704 5705 5706 5706 5706 5707 5707 5707 5707 5707 5706 5706 5706 5706 5705 5705
5596 5595 5594 5593 5591 5590 5590 5589 5589 5589 5590 5590 5591 5591 5592 5592 5593 5595 5597 5600 5603 5606 5610 5615 5619 5622 5625 5628 5631 5634 5636 5639 5642 5645 5647 5649 5651 5653 5655 5656 5658 5660 5661 5663 5664 5665 5667 5668 5669 5670 5672 5673 5674 5675 5676 5678 5679 5680 5682 5684 5685 5687 5688 5689 5691 5692 5692 5693 5693 5694 5694 5695 5696 5696 5697 5697 5697 5697 5697 5697 5697 5697 5697 5697 5697 5696 5696
5597 5595 5595 5594 5593 5592 5591 5591 5590 5590 5591 5591 5592 5592 5592 5593 5594 5595 5597 5600 5602 5605 5608 5612 5615 5618 5621 5624 5627 5630 5632 5635 5637 5639 5641 5643 5645 5647 5649 5651 5653 5654 5656 5657 5658 5659 5660 5662 5663 5664 5665 5666 5667 5669 5670 5671 5672 5673 5675 5676 5678 5679 5680 5682 5683 5683 5684 5684 5685 5686 5686 5687 5687 5687 5688 5688 5688 5688 5689 5689 5688 5688 5688 5688 5687 5687 5686
5597 5595 5594 5594 5593 5593 5592 5592 5591 5590 5590 5591 5591 5592 5593 5593 5594 5596 5598 5600 5603 5605 5608 5610 5612 5614 5616 5619 5622 5625 5627 5629 5631 5634 5636 5638 5639 5641 5643 5646 5647 5649 5650 5651 5652 5654 5655 5656 5657 5658 5659 5660 5661 5663 5664 5665 5666 5667 5668 5670 5671 5672 5673 5674 5675 5675 5676 5677 5677 5677 5678 5678 5678 5678 5679 5679 5679 5679 5679 5679 5679 5679 5678 5678 5678 5678 5677
5596 5595 5594 5593 5593 5592 5592 5592 5591 5591 5590 5590 5591 5592 5593 5594 5595 5596 5598 5600 5602 5604 5606 5608 5610 5612 5614 5616 5618 5620 5622 5624 5626 5628 5630 5632 5633 5635 5638 5640 5642 5643 5645 5646 5647 5648 5649 5650 5651 5652 5653 5654 5656 5657 5658 5659 5660 5661 5662 5663 5664 5665 5666 5667 5668 5668 5669 5670 5670 5670 5670 5670 5670 5670 5670 5671 5671 5671 5670 5670 5670 5670 5670 5669 5669 5669 5669
5595 5595 5594 5593 5592 5591 5591 5591 5590 5590 5590 5590 5590 5591 5592 5593 5594 5596 5597 5598 5600 5602 5603 5605 5607 5609 5611 5613 5615 5617 5619 5621 5622 5624 5625 5627 5628 5630 5632 5635 5637 5638 5639 5641 5642 5644 5645 5646 5647 5647 5648 5649 5651 5652 5653 5654 5655 5655 5656 5657 5658 5659 5660 5661 5661 5662 5663 5664 5664 5664 5664 5663 5663 5663 5664 5664 5663 5663 5662 5662 5662 5662 5662 5662 5661 5661 5660
5594 5593 5592 5592 5591 5591 5590 5590 5589 5589 5589 5589 5589 5590 5590 5591 5592 5594 5595 5596 5598 5599 5601 5602 5604 5606 5607 5609 5611 5613 5615 5617 5618 5620 5621 5622 5623 5625 5627 5629 5631 5632 5634 5636 5638 5639 5640 5641 5642 5643 5643 5645 5646 5647 5647 5648 5649 5650 5651 5652 5653 5653 5654 5654 5655 5655 5656 5657 5657 5657 5657 5657 5656 5656 5657 5657 5656 5655 5654 5655 5656 5656 5655 5654 5653 5653 5652
5592 5591 5591 5590 5590 5589 5589 5589 5588 5588 5588 5588 5588 5589 5589 5590 5591 5591 5593 5594 5595 5596 5598 5599 5601 5602 5603 5604 5606 5608 5610 5612 5613 5615 5616 5618 5619 5620 5622 5624 5625 5627 5628 5630 5632 5633 5635 5635 5636 5637 5638 5639 5640 5641 5641 5641 5642 5643 5645 5646 5646 5647 5647 5648 5648 5649 5649 5650 5650 5650 5650 5650 5650 5650 5650 5650 5650 5649 5648 5648 5648 5649 5649 5648 5646 5645 5645
5590 5589 5589 5589 5588 5588 5587 5587 5587 5587 5587 5587 5587 5587 5588 5589 5589 5590 5591 5592 5592 5593 5595 5596 5597 5598 5599 5601 5602 5603 5605 5606 5608 5609 5611 5613 5614 5615 5617 5618 5620 5621 5623 5624 5626 5627 5628 5629 5630 5631 5632 5633 5634 5634 5635 5635 5635 5636 5638 5639 5639 5640 5640 5641 5642 5642 5642 5643 5643 5643 5643 5643 5644 5643 5643 5642 5643 5643 5643 5642 5642 5642 5642 5640 5637 5636 5637
5589 5587 5587 5587 5586 5586 5585 5585 5585 5585 5585 5585 5585 5586 5586 5586 5587 5588 5588 5589 5590 5591 5592 5593 5594 5595 5596 5597 5598 5599 5601 5602 5603 5604 5606 5608 5609 5610 5612 5613 5614 5616 5617 5619 5620 5621 5622 5623 5624 5625 5626 5627 5628 5629 5629 5629 5630 5631 5632 5633 5633 5633 5634 5634 5635 5635 5635 5636 5636 5636 5637 5637 5637 5636 5636 5636 5635 5636 5636 5636 5636 5635 5634 5631 5628 5628 5630